Location: Peebles
(55.6412°N, 3.1714°W)
Time: 16:44:07
(UTC+01:00)

Cosmos 1934 Rocket - Pass Details

Date: 02 February 2022
Orbit: 938 x 999 km, 83.0° (Epoch: 25 May)

Event Time Altitude Azimuth Distance (km) Brightness Sun altitude
Rises 18:24:59 0° 346° (NNW) 3,637 7.1 -13.5°
Reaches altitude 10° 18:27:36 10° 340° (NNW) 2,681 6.4 -13.8°
Maximum altitude 18:33:17 43° 271° (W) 1,304 5.2 -14.6°
Drops below altitude 10° 18:38:56 10° 202° (SSW) 2,649 6.7 -15.4°
Sets 18:41:30 0° 196° (SSW) 3,589 7.3 -15.8°
